Tracking 18840 objects as of 17-November-2017
HD Live streaming from Space Station
objects crossing your sky now

PSLV R/B

Track PSLV R/B now!
10-day predictions


NORAD ID: 38757
Int'l Code: 2012-047C
Perigee: 640.4 km
Apogee: 648.4 km
Inclination: 98.1 °
Period: 97.5 minutes
Semi major axis: 7015 km
RCS: 5.395 m2 (large)
Launch date: September 9, 2012
Source: India (IND)
Launch site: SRIHARIKOTA (SRI)

Note: This is a ROCKET BODY
aabbcc
Your satellite tracking list
Your tracking list is empty




NASA's NSSDC Master Catalog

Two Line Element Set (TLE):
1 38757U 12047C   17321.25006461  .00000118  00000-0  23904-4 0  9994
2 38757  98.0713  59.6254 0005723   7.0261 353.1028 14.77480104279651
Source of the keplerian elements: AFSPC